Home > Time Zones > World Clock > Weather > Italy > Monza > Past weeks

Flag for Italy Weather past 2 weeks in Monza, Italy

Now
34 °F

Passing clouds.


Feels Like: 34 °F
Forecast: 28 / 48 °F
Wind: 2 mph from North

Location: Milan / Linate

Current Time: Jan 29, 2015 at 6:23:46 AM

Latest Report: Jan 29, 2015 at 5:50 AM


Visibility: N/A

Pressure: 29.68 "Hg

Humidity: 87%

Dew point: 30 °F

Location of MonzaLocation

Historic Weather in Monza — Graph

°F

Monza temperature yesterday

Maximum temperature yesterday: 46 °F (at 3:20 PM)
Minimum temperature yesterday: 28 °F (at 2:50 AM)
Average temperature yesterday: 36 °F

Past Weeks' High & Low Weather Summary

 TemperatureHumidityPressure
High55 °F (Jan 17, 2:20 PM)100% (Jan 14, 11:50 PM)30.27 "Hg (Jan 14, 11:50 PM)
Low28 °F (Jan 25, 5:20 AM)28% (Jan 25, 4:20 PM)29.68 "Hg (Jan 29, 4:50 AM)
Average40 °F89%29.97 "Hg
* Reported Jan 14 4:20 AM — Jan 29 4:50 AM, Monza, Weather by CustomWeather, © 2014

Note: Actual official high and low records may vary slightly from our data, if they occured in-between our weather recording intervals... More about our weather records

Advertising

Monza weather history for previous 24 hours

 ConditionsComfort  
Time TempWeatherWind HumidityBarometerVisibility
4:50 AM
Jan 29
34 °FPassing clouds.No wind87%29.68 "HgN/A
4:20 AM34 °FPassing clouds.1 mph87%29.71 "HgN/A
3:50 AM34 °FPassing clouds.2 mph87%29.71 "HgN/A
3:20 AM32 °FPassing clouds.3 mph93%29.71 "HgN/A
2:50 AM32 °FPassing clouds.3 mph93%29.74 "HgN/A
2:20 AM32 °FPassing clouds.2 mph87%29.77 "HgN/A
1:50 AM34 °FClear.2 mph87%29.77 "Hg10 mi
1:20 AM34 °FClear.2 mph87%29.77 "Hg10 mi
12:50 AM34 °FClear.5 mph87%29.80 "Hg10 mi
12:20 AM34 °FClear.5 mph87%29.83 "Hg10 mi
11:50 PM
Jan 28
32 °FClear.3 mph93%29.83 "Hg10 mi
11:20 PM32 °FClear.No wind93%29.86 "Hg10 mi
10:50 PM34 °FClear.No wind93%29.86 "Hg10 mi
10:20 PM34 °FClear.1 mph87%29.89 "Hg10 mi
9:50 PM34 °FClear.1 mph87%29.89 "Hg10 mi
9:20 PM36 °FClear.1 mph81%29.92 "Hg10 mi
8:50 PM34 °FClear.No wind87%29.92 "Hg10 mi
8:20 PM34 °FClear.2 mph81%29.92 "Hg10 mi
7:50 PM37 °FClear.2 mph75%29.92 "Hg10 mi
7:20 PM37 °FClear.2 mph70%29.92 "Hg10 mi
6:50 PM39 °FClear.No wind65%29.95 "Hg10 mi
6:20 PM39 °FClear.1 mph61%29.95 "Hg10 mi
5:50 PM41 °FClear.2 mph61%29.95 "Hg10 mi
5:20 PM43 °FSunny.1 mph57%29.95 "Hg10 mi
4:50 PM45 °FSunny.3 mph53%29.95 "Hg10 mi
4:20 PM46 °FPassing clouds.5 mph50%29.98 "HgN/A
3:50 PM46 °FSunny.6 mph50%29.98 "Hg10 mi
3:20 PM46 °FPassing clouds.6 mph50%29.98 "HgN/A
2:50 PM45 °FPassing clouds.6 mph57%29.98 "HgN/A
2:20 PM45 °FSunny.6 mph57%30.01 "Hg10 mi
1:50 PM43 °FSunny.7 mph66%30.01 "Hg10 mi
1:20 PM45 °FPassing clouds.6 mph57%30.04 "HgN/A
12:50 PM45 °FPassing clouds.5 mph61%30.04 "HgN/A
12:20 PM45 °FPassing clouds.3 mph57%30.04 "HgN/A
11:50 AM43 °FPassing clouds.3 mph61%30.07 "HgN/A
11:20 AM41 °FSunny.2 mph66%30.07 "Hg10 mi
10:50 AM39 °FPassing clouds.3 mph70%30.07 "HgN/A
10:20 AM37 °FPassing clouds.5 mph75%30.07 "HgN/A
9:50 AM34 °FSunny.3 mph81%30.09 "Hg10 mi
9:20 AM34 °FPassing clouds.3 mph81%30.07 "HgN/A
8:50 AM32 °FPassing clouds.5 mph87%30.07 "HgN/A
8:20 AM30 °FPassing clouds.3 mph86%30.07 "HgN/A
7:50 AM30 °FSunny.3 mph86%30.07 "Hg10 mi
7:20 AM30 °FPassing clouds.5 mph86%30.07 "HgN/A
6:50 AM30 °FPassing clouds.5 mph86%30.07 "HgN/A
6:20 AM28 °FClear.3 mph93%30.04 "Hg10 mi
Weather by CustomWeather, © 2014

See weather overviewHow to use our weather pages